Location: Newark
(41.9000°N, 12.4833°E)
Time: 05:54:06
(UTC+00:00)

Envisat - Visible Passes

Search period start: 20 October 2019 00:00
Search period end: 30 October 2019 00:00
Orbit: 764 x 766 km, 98.1° (Epoch: 19 October)

Date Brightness Start Highest point End Pass type
(mag) Time Alt. Az. Time Alt. Az. Time Alt. Az.
20 Oct 6.7 04:39:27 10° ENE 04:40:43 11° E 04:42:00 10° ESE visible
20 Oct 3.5 17:30:05 10° S 17:35:06 64° WSW 17:40:10 10° NNW visible
21 Oct 3.0 16:53:25 10° SSE 16:58:22 59° ENE 17:03:23 10° N visible
21 Oct 5.9 18:34:37 10° SW 18:37:47 16° W 18:40:57 10° NW visible
22 Oct 6.0 05:02:51 10° NE 05:06:32 20° E 05:10:11 10° SE visible
22 Oct 4.6 17:56:04 10° SSW 18:00:42 36° W 18:05:23 10° NNW visible
23 Oct 3.1 17:18:46 10° S 17:23:50 81° WSW 17:28:57 10° NNW visible
24 Oct 3.3 16:42:19 10° SE 16:47:09 47° ENE 16:52:00 10° N visible
24 Oct 5.5 18:22:38 10° SW 18:26:24 21° W 18:30:12 10° NW visible
25 Oct 6.2 04:52:08 10° NE 04:55:09 16° E 04:58:09 10° SE visible
25 Oct 4.1 17:44:32 10° S 17:49:23 45° W 17:54:17 10° NNW visible
26 Oct 2.9 17:07:30 10° SSE 17:12:35 81° ENE 17:17:40 10° N visible
26 Oct 6.2 18:50:30 10° WSW 18:52:12 12° W 18:53:53 10° WNW visible
27 Oct 5.2 18:10:49 10° SSW 18:15:02 26° W 18:19:17 10° NW visible
28 Oct 6.4 04:41:47 10° ENE 04:43:45 12° E 04:45:43 10° ESE visible
28 Oct 3.6 17:33:06 10° S 17:38:05 58° W 17:43:07 10° NNW visible
29 Oct 3.0 16:56:20 10° SSE 17:01:19 64° ENE 17:06:22 10° N visible
29 Oct 5.9 18:37:56 10° SW 18:40:47 15° W 18:43:39 10° NW visible
